Location: *
(40.4000°N, 15.1200°E)
Time: 22:06:06
(UTC+00:00)

Resurs 01 Rocket - Pass Details

Date: 09 April 2020
Orbit: 635 x 643 km, 98.0° (Epoch: 24 May)

Event Time Altitude Azimuth Distance (km) Brightness Sun altitude
Exits shadow 19:17:43 45° 123° (ESE) 863 1.8 -19.5°
Maximum altitude 19:18:44 58° 74° (ENE) 743 1.7 -19.7°
Drops below altitude 10° 19:23:04 10° 355° (N) 2,033 4.6 -20.4°
Sets 19:25:18 0° 352° (N) 2,947 5.6 -20.8°
